Regional Weather Roundup
Issued by NWS

Home | Current Version | Previous Version | Text Only | Print | Product List | Glossary On
Versions: 1 2 3 4 5 6 7 8 9 10 11 12 13 14 15 16 17 18 19 20 21 22 23 24 25 26 27 28 29 30 31 32 33 34 35 36 37 38 39 40 41 42 43 44 45 46 47 48 49 50
000
ASUS45 KREV 280610
RWRNV
NEVADA REGIONAL WEATHER ROUNDUP
NATIONAL WEATHER SERVICE RENO NV
1000 PM PST FRI FEB 27 2015

NOTE: "FAIR" INDICATES FEW OR NO CLOUDS BELOW 12,000 FEET WITH NO
SIGNIFICANT WEATHER AND/OR OBSTRUCTIONS TO VISIBILITY.

NVZ001-003-004-280700-
WESTERN NEVADA

CITY           SKY/WX    TMP DP  RH WIND       PRES   REMARKS
RENO           MOCLDY    38  32  79 CALM      29.64R
6HR MIN TEMP:  38; 6HR MAX TEMP:  51; 6HR PCP:  0.01;

CARSON CITY    FAIR      36  32  87 CALM      29.65R
MINDEN         FAIR      32  28  86 SE6       29.66
SLIDE MTN        N/A     19  14  79 W10         N/A
PYRAMID LAKE     N/A     32 N/A N/A S3          N/A
FALLON         MOCLDY    39  33  79 N6        29.65R
6HR MIN TEMP:  37; 6HR MAX TEMP:  49; 6HR PCP: TRACE;

LOVELOCK       CLOUDY    39  34  82 NE7       29.64S
6HR MIN TEMP:  38; 6HR MAX TEMP:  50; 6HR PCP: TRACE;

HAWTHORNE      CLOUDY    43  32  65 W15       29.65R
$$

NVZ002-CAZ072-073-280700-
NORTHERN AND CENTRAL SIERRA

CITY           SKY/WX    TMP DP  RH WIND       PRES   REMARKS
S. LAKE TAHOE  LGT SNOW  32  28  85 CALM      29.63F FOG
6HR MIN TEMP:  31; 6HR MAX TEMP:  43; 6HR PCP:  0.09;

TRUCKEE        CLOUDY    27  25  93 CALM      29.64S
SQUAW VLY 8000   N/A     25  25 100 W10         N/A
SUSANVILLE     MIX PCPN  36  34  93 SW6       29.67S
BLUE CANYON    LGT SNOW  32  30  92 CALM      29.67S FOG
MAMMOTH LAKES  CLOUDY    32   7  34 W5        29.65S
BRIDGEPORT     CLOUDY    30  21  69 VRB3      29.62S
$$

NVZ030-031-036-280700-
NORTHERN NEVADA

CITY           SKY/WX    TMP DP  RH WIND       PRES   REMARKS
ELKO           LGT SNOW  32  31  96 SW3       29.62S VSB 3/4
6HR MIN TEMP:  32; 6HR MAX TEMP:  42; 6HR PCP:  0.08;

WINNEMUCCA     MOCLDY    32  31  96 S5        29.64S
6HR MIN TEMP:  31; 6HR MAX TEMP:  41; 6HR PCP:  0.12;

WENDOVER       MOCLDY    37  27  65 N16       29.67F
$$

NVZ035-037-280700-
CENTRAL NEVADA

CITY           SKY/WX    TMP DP  RH WIND       PRES   REMARKS
ELY            CLOUDY    31  26  82 SW6       29.62F
6HR MIN TEMP:  29; 6HR MAX TEMP:  41; 6HR PCP: TRACE;

EUREKA           N/A     31  29  92 CALM      29.62S
6HR MIN TEMP:  31; 6HR MAX TEMP:  36; 6HR PCP:  0.22;

$$

NVZ013-014-280700-
SOUTH CENTRAL NEVADA

CITY           SKY/WX    TMP DP  RH WIND       PRES   REMARKS
TONOPAH        MOCLDY    34  31  88 CALM      29.63S
6HR MIN TEMP:  33; 6HR MAX TEMP:  48; 6HR PCP: TRACE;

$$

NVZ017-020-022-280700-
SOUTHERN NEVADA

CITY           SKY/WX    TMP DP  RH WIND       PRES   REMARKS
LAS VEGAS      PTCLDY    58  36  43 S15       29.51F
6HR MIN TEMP:  58; 6HR MAX TEMP:  65;

N. LAS VEGAS   CLEAR     55  30  38 S8        29.54S
6HR MIN TEMP:  55; 6HR MAX TEMP:  63; 6HR PCP: TRACE;

NELLIS AFB     PTCLDY    58  39  47 S12       29.54F
6HR MIN TEMP:  58; 6HR MAX TEMP:  64;

HENDERSON      CLEAR     55  37  50 S9        29.57F
6HR MIN TEMP:  55; 6HR MAX TEMP:  63; 6HR PCP: TRACE;

MERCURY        PTCLDY    51  27  39 SW5       29.55R
6HR MIN TEMP:  50; 6HR MAX TEMP:  61;

$$



USA.gov is the U.S. government's official web portal to all federal, state and local government web resources and services.